Fort Lewis, WA
on Monday, November 12, 2012

Monday
Previous Day Next Day
Daily Summary
 ActualAverage (KOLM)Record (KOLM)
Temperature
Mean Temperature °F 44°F  
Max Temperature 53°F 51°F 61°F (1953)
Min Temperature 44°F 37°F 12°F (1955)
Degree Days
Heating Degree Days 16 21  
Month to date heating degree days 236  
Since 1 July heating degree days 1030  
Cooling Degree Days 0 0  
Month to date cooling degree days 0  
Year to date cooling degree days 106  
Moisture
Dew Point 45°F   
Average Humidity 92    
Maximum Humidity 100    
Minimum Humidity 77    
Precipitation
Precipitation 0.04 in 0.30 in 2.89 in (1949)
Month to date precipitation 3.17  
Year to date precipitation 37.08  
Wind
Wind Speed 5 mph   
Max Wind Speed 15 mph   
Max Gust Speed 21 mph   
Visibility 9 miles   
Events Rain   

Key: T is trace of precipitation, MM is missing value
Source: NWS Daily Summary
Time(PST)TemperatureDew PointHumidity Pressure Visibility Wind DirectionWind SpeedGust SpeedPrecipitationEvents Conditions
12:53 AM 44.6°F 44.6°F 100% 30.06 in 10.0 miles NNE 4.6 mph - N/A   Overcast
12:57 AM 44.6°F 42.8°F 93% 30.06 in 10.0 miles NE 4.6 mph - N/A   Overcast
12:58 AM 44.1°F 43.7°F 99% 30.08 in 10.0 miles NE 3.5 mph - N/A   Overcast
1:13 AM 44.6°F 42.8°F 93% 30.06 in 10.0 miles NNE 4.6 mph - N/A   Light Drizzle
1:14 AM 44.6°F 42.8°F 93% 30.06 in 10.0 miles North 4.6 mph - N/A   Overcast
1:19 AM 44.6°F 42.8°F 93% 30.06 in 10.0 miles NNE 3.5 mph - N/A   Light Drizzle
1:39 AM 44.6°F 42.8°F 93% 30.07 in 10.0 miles Calm Calm - N/A   Overcast
1:58 AM 44.1°F 43.9°F 99% 30.09 in 10.0 miles NE 2.3 mph - 0.01 in   Overcast
2:28 AM 44.6°F 44.6°F 100% 30.07 in 10.0 miles NNE 4.6 mph - N/A   Overcast
2:43 AM 44.6°F 44.6°F 100% 30.07 in 10.0 miles NNE 4.6 mph - N/A   Overcast
2:58 AM 44.4°F 44.1°F 99% 30.09 in 10.0 miles NE 2.3 mph - N/A   Overcast
3:13 AM 44.6°F 44.6°F 100% 30.07 in 10.0 miles NE 3.5 mph - N/A   Overcast
3:58 AM 44.4°F 44.2°F 99% 30.09 in 8.0 miles NNE 4.6 mph - N/A   Overcast
4:18 AM 44.6°F 44.6°F 100% 30.08 in 8.0 miles NNE 2.3 mph - N/A   Overcast
4:42 AM 44.6°F 44.6°F 100% 30.08 in 6.0 miles NE 3.5 mph - N/A   Light Drizzle
4:58 AM 44.4°F 44.2°F 99% 30.11 in 4.0 miles NNW 2.3 mph - 0.01 in   Light Drizzle
5:05 AM 44.6°F 44.6°F 100% 30.08 in 4.0 miles North - - N/A   Overcast
5:10 AM 44.6°F 44.6°F 100% 30.09 in 4.0 miles Calm Calm - N/A   Overcast
5:20 AM 44.6°F 44.6°F 100% 30.08 in 4.0 miles East 1.2 mph - N/A   Overcast
5:30 AM 44.6°F 44.6°F 100% 30.08 in 5.0 miles Calm Calm - N/A   Overcast
5:35 AM 44.6°F 44.6°F 100% 30.08 in 5.0 miles SE 2.3 mph - N/A   Overcast
5:39 AM 44.6°F 44.6°F 100% 30.08 in 5.0 miles Calm Calm - N/A   Light Drizzle
5:58 AM 44.2°F 44.1°F 99% 30.10 in 5.0 miles SSE 3.5 mph - 0.01 in   Light Drizzle
6:01 AM 44.6°F 44.6°F 100% 30.08 in 7.0 miles SSE 2.3 mph - N/A   Overcast
6:58 AM 44.8°F 44.4°F 99% 30.11 in 10.0 miles SE 5.8 mph - 0.00 in   Overcast
7:58 AM 47.7°F 46.2°F 95% 30.13 in 10.0 miles South 8.1 mph - N/A   Overcast
8:58 AM 49.1°F 45.9°F 89% 30.14 in 10.0 miles South 11.5 mph - N/A   Overcast
9:58 AM 50.4°F 46.4°F 86% 30.15 in 10.0 miles South 10.4 mph - N/A   Overcast
10:58 AM 52.0°F 46.2°F 81% 30.16 in 10.0 miles South 15.0 mph 20.7 mph N/A   Mostly Cloudy
11:08 AM 51.8°F 46.4°F 82% 30.14 in 10.0 miles South 13.8 mph - N/A   Scattered Clouds
11:53 AM 53.6°F 46.4°F 77% 30.15 in 10.0 miles South 13.8 mph - N/A   Mostly Cloudy
11:58 AM 53.1°F 46.2°F 78% 30.16 in 10.0 miles South 12.7 mph - N/A   Mostly Cloudy
12:33 PM 53.6°F 46.4°F 77% 30.15 in 10.0 miles South 11.5 mph - N/A   Mostly Cloudy
12:58 PM 53.2°F 46.6°F 78% 30.17 in 10.0 miles South 9.2 mph - N/A   Overcast
1:58 PM 52.7°F 46.9°F 81% 30.17 in 10.0 miles South 10.4 mph - N/A   Overcast
2:58 PM 52.9°F 46.8°F 80% 30.17 in 10.0 miles SSE 8.1 mph - N/A   Overcast
3:58 PM 51.8°F 46.6°F 82% 30.18 in 10.0 miles South 5.8 mph - N/A   Partly Cloudy
4:58 PM 51.1°F 46.2°F 83% 30.19 in 10.0 miles South 4.6 mph - N/A   Overcast
5:58 PM 50.2°F 46.6°F 87% 30.19 in 10.0 miles South 5.8 mph - N/A   Overcast
6:58 PM 49.1°F 46.4°F 90% 30.20 in 10.0 miles South 5.8 mph - N/A   Overcast
7:06 PM 50.0°F 46.4°F 87% 30.18 in 10.0 miles South 9.2 mph - N/A   Light Drizzle
7:16 PM 50.0°F 46.4°F 87% 30.18 in 10.0 miles SSE 8.1 mph - N/A   Overcast
7:32 PM 50.0°F 46.4°F 87% 30.19 in 10.0 miles South 9.2 mph - N/A Rain Light Rain
7:43 PM 50.0°F 46.4°F 87% 30.19 in 10.0 miles SSE 8.1 mph - N/A   Overcast
7:58 PM 49.1°F 46.9°F 92% 30.21 in 10.0 miles South 8.1 mph - 0.01 in   Overcast
8:58 PM 49.3°F 47.1°F 92% 30.22 in 10.0 miles South 8.1 mph - N/A   Mostly Cloudy
9:58 PM 48.2°F 46.6°F 94% 30.23 in 10.0 miles SSE 4.6 mph - N/A   Overcast
10:58 PM 47.8°F 45.9°F 93% 30.23 in 10.0 miles SE 4.6 mph - N/A   Mostly Cloudy
11:58 PM 47.1°F 46.0°F 96% 30.23 in 10.0 miles ESE 3.5 mph - N/A   Overcast
Moon Phase
Nov. 12 Nov. 13 Nov. 20 Nov. 28 Dec. 06
Sunrise:07:10 AM (PST) Moon Rise:05:39 AM (PST)11/12
Sunset:04:38 PM (PST) Moon Set:03:48 PM (PST)11/12

Copyright © 2014 The Weather Underground, Inc.